Printer-friendly version

IAU Minor Planet Center

Minor Planet Center

MPEC 2007-B49 : COMET C/2006 V1 (CATALINA)

The following Minor Planet Electronic Circular may be linked-to from your own Web pages, but must not otherwise be redistributed electronically.


Read MPEC 2007-B48 Read MPEC 2007-B50


M.P.E.C. 2007-B49                                Issued 2007 Jan. 26, 16:46 UT

     The Minor Planet Electronic Circulars contain information on unusual
         minor planets and routine data on comets.  They are published
   on behalf of Commission 20 of the International Astronomical Union by the
          Minor Planet Center, Smithsonian Astrophysical Observatory,
                          Cambridge, MA 02138, U.S.A.

             Prepared using the Tamkin Foundation Computer Network

                              MPC@CFA.HARVARD.EDU
          URL http://cfa-www.harvard.edu/iau/mpc.html  ISSN 1523-6714

                          COMET C/2006 V1 (CATALINA)

Observations:
    CK06V010  C2007 01 12.79943 11 11 49.48 +05 09 21.6                 EB049349
    CK06V010  C2007 01 12.80304 11 11 49.44 +05 09 20.7                 EB049349
    CK06V010  C2007 01 12.80665 11 11 49.39 +05 09 19.9          17.0 T EB049349
    CK06V010  C2007 01 16.10938 11 11 11.26 +04 55 35.4          17.4 T EB049561
    CK06V010  C2007 01 16.11354 11 11 11.19 +04 55 34.3          17.6 T EB049561
    CK06V010  C2007 01 16.11771 11 11 11.15 +04 55 33.2          17.8 T EB049561
    CK06V010  C2007 01 16.35174 11 11 08.15 +04 54 37.2          18.3 T EB049704
    CK06V010  C2007 01 16.36435 11 11 07.97 +04 54 32.7          19.5 T EB049704
    CK06V010  C2007 01 16.37678 11 11 07.86 +04 54 30.2          19.6 T EB049704
    CK06V010  C2007 01 16.38920 11 11 07.55 +04 54 26.9          19.3 T EB049704
    CK06V010  C2007 01 16.40188 11 11 07.37 +04 54 22.6          19.0 T EB049704
    CK06V010  C2007 01 17.49010 11 10 51.95 +04 50 00.3                 EB049G96
    CK06V010  C2007 01 17.49551 11 10 51.88 +04 49 59.1                 EB049G96
    CK06V010  C2007 01 17.50098 11 10 51.78 +04 49 57.4                 EB049G96
    CK06V010  C2007 01 17.50646 11 10 51.70 +04 49 56.6                 EB049G96
    CK06V010  C2007 01 20.06913 11 10 10.94 +04 39 50.3          16.4 N EB049J70
    CK06V010  C2007 01 20.12811 11 10 09.73 +04 39 35.4          17.3 N EB049232
    CK06V010  C2007 01 20.13375 11 10 09.62 +04 39 34.3          17.2 N EB049232
    CK06V010  C2007 01 20.13940 11 10 09.52 +04 39 32.9          17.3 N EB049232
    CK06V010  C2007 01 20.97205 11 09 54.88 +04 36 20.0          16.8 N EB049J76
    CK06V010  C2007 01 20.97568 11 09 54.86 +04 36 19.1          16.9 N EB049J76
    CK06V010  C2007 01 20.97785 11 09 54.81 +04 36 18.8          16.8 N EB049J76
    CK06V010  C2007 01 23.02547 11 09 15.33 +04 28 31.9          17.2 N EB049A32
    CK06V010  C2007 01 23.03174 11 09 15.18 +04 28 30.5          17.2 N EB049A32
    CK06V010  C2007 01 23.03801 11 09 15.03 +04 28 29.0          17.3 N EB049A32
    CK06V010  C2007 01 23.34232 11 09 08.95 +04 27 22.1          17.9 T EB049704
    CK06V010  C2007 01 23.35470 11 09 08.53 +04 27 19.4          18.6 T EB049704
    CK06V010  C2007 01 23.37963 11 09 07.90 +04 27 14.4          18.6 T EB049704
    CK06V010  C2007 01 23.39134 11 09 07.76 +04 27 10.8          17.0 T EB049699
    CK06V010  C2007 01 23.39229 11 09 07.74 +04 27 08.5          18.5 T EB049704
    CK06V010  C2007 01 23.41697 11 09 07.20 +04 27 05.1                 EB049699
    CK06V010  C2007 01 23.44260 11 09 06.62 +04 26 59.8                 EB049699
    CK06V010  C2007 01 23.46822 11 09 06.09 +04 26 53.3                 EB049699

Observer details:
232 Masquefa Observatory.  Observer E. Reina.  0.25-m f/3.3 Schmidt-Cassegrain
    + CCD.
349 Ageo.  Observer K. Kadota.  0.25-m f/5.0 reflector + CCD.
561 Piszkesteto Stn. (Konkoly).  Observer J. Kelemen.  0.6-m Schmidt + CCD.
699 Lowell Observatory-LONEOS.  Observer B. A. Skiff.  0.59-m LONEOS Schmidt
    + CCD.
704 Lincoln Laboratory ETS, New Mexico.  Observers M. Bezpalko, D. Torres,
    R. Kracke, G. Spitz, J. Kistler.  Measurers J. Stuart, S. Scruggs.  1.0-m
    f/2.15 reflector + CCD.
A32 Panker.  Observer H. Denzau.  0.36-m f/5.5 Schmidt-Cassegrain + CCD.
G96 Mt. Lemmon Survey.  Observer R. E. Hill.  Measurers E. C. Beshore,
    E. J. Christensen, A. R. Gibbs, A. D. Grauer, R. E. Hill,
    R. A. Kowalski, S. M. Larson.  1.5-m reflector + CCD.
J70 Obs. Astronomico Vega del Thader, El Palmar.  Observer J. P. Navarro P.
    0.20-m Schmidt-Cassegrain + CCD.
J76 La Murta.  Observers S. Pastor, J. A. Reyes.  0.40-m f/6.3
    Schmidt-Cassegrain + CCD.

Orbital elements:
    C/2006 V1 (Catalina)
T 2007 Nov. 26.5216 TT                                  MPC
q   2.674483             (2000.0)            P               Q
z  +0.003976       Peri.  253.4124      -0.5975750      +0.7731469
                   Node   335.7229      -0.3815029      -0.5072429
e   0.989365       Incl.   31.1176      -0.7052373      -0.3807210
From 155 observations 2006 Nov. 11-2007 Jan. 23.

Brian G. Marsden             (C) Copyright 2007 MPC           M.P.E.C. 2007-B49

Read MPEC 2007-B48 Read MPEC 2007-B50


Our Web policy. Index to the CBAT/MPC/ICQ pages.


Valid HTML 4.01!